Torna al catalogo

SL-8 DEB

AttivoLEO
NORAD 21958·DEBRIS·🇷🇺 Russia

Lanciato Feb 12, 1991 da Plesetsk Cosmodrome

Loading…

Prossimi Passaggi (prossime 24 ore)

TLE

AggiornatoSource: Space-Track

Epoca: Sep 14, 2026, 00:56 UTC

1 21958U 91009CG  26257.03922360 -.00000055  00000-0 -40039-3 0  9992
2 21958  73.9613 104.8937 0133717  28.3165 124.2960 12.16812543577595

Traccia SL-8 DEB in tempo reale con AllMySat

Download on the App Store